Regional Weather Roundup
Issued by NWS

Home | Current Version | Previous Version | Graphics & Text | Print | Product List | Glossary On
Versions: 1 2 3 4 5 6 7 8 9 10 11 12 13 14 15 16 17 18 19 20 21 22 23 24 25 26 27 28 29 30 31 32 33 34 35 36 37 38 39 40 41 42 43 44 45 46 47 48 49 50
000
ASUS43 KDTX 220710
RWRMI
MICHIGAN HOURLY REGIONAL WEATHER ROUNDUP
NATIONAL WEATHER SERVICE DETROIT/PONTIAC MI
300 AM EDT SUN OCT 22 2017

NOTE: "FAIR" INDICATES FEW OR NO CLOUDS BELOW 12,000 FEET WITH NO
SIGNIFICANT WEATHER AND/OR OBSTRUCTION TO VISIBILITY.

MIZ047>049-052>055-059>063-066>070-074>076-081>083-220800-
SOUTHEAST LOWER MICHIGAN

CITY           SKY/WX    TMP DP  RH WIND       PRES   REMARKS
ADRIAN         CLEAR     55  46  71 CALM      30.17R
ALMA           PTCLDY    59  44  57 SE3       30.11R
ANN ARBOR      PTCLDY    46  43  89 SW3       30.16S
BAD AXE        PTCLDY    59  49  69 S8        30.14S
CARO           CLOUDY    63  47  57 S6        30.13S
DETROIT CITY   CLEAR     57  50  77 S5        30.17S
DETROIT        MOCLDY    58  48  69 S7        30.17S
FLINT          PTCLDY    61  47  59 S8        30.15R
GROSSE ILE     CLEAR     58  53  84 S6        30.16S
HILLSDALE      CLEAR     57  45  62 S6        30.15S
HOWELL         CLEAR     53  46  77 SE6       30.15S

CITY           SKY/WX    TMP DP  RH WIND       PRES   REMARKS
JACKSON        CLEAR     60  46  59 S8        30.14S
LAMBERTVILLE   CLEAR     56  46  70 CALM      30.16F
LANSING        CLEAR     61  45  55 S10       30.12S
LAPEER         FAIR      60  46  58 S7        30.16S
MASON          PTCLDY    62  46  57 S5        30.13S
MONROE         CLEAR     56  45  65 S3        30.16S
MT. CLEMENS    CLOUDY    53  53 100 CALM      30.15F
PONTIAC        CLEAR     57  47  69 CALM      30.16R
PORT HOPE        N/A     63  50  62 VRB6      30.11S
PORT HURON     CLOUDY    52  48  87 CALM      30.18S
TRI CITIES     PTCLDY    61  50  67 S9        30.11S
MIDLAND        FAIR      62  47  59 S5        30.09S
TROY           CLEAR     57  47  71 S3        30.18S
SAGINAW HB     CLOUDY    59  48  67 S9        30.11S
$$
MIZ043>046-050>051-056>058-064>065-071>073-077>080-220800-
SOUTHWEST LOWER MICHIGAN

CITY           SKY/WX    TMP DP  RH WIND       PRES   REMARKS
BATTLE CREEK   CLEAR     61  47  59 S10       30.11F
BENTON HARBOR  CLEAR     64  49  57 SE9       30.06S
BIG RAPIDS     CLOUDY    59  45  58 SE5       30.06F
COLDWATER      PTCLDY    59  45  60 S5        30.13S
FREMONT        CLOUDY    64  53  67 S6        30.05S
HOLLAND        CLOUDY    65  50  58 S13       30.06S
GRAND RAPIDS   MOCLDY    64  50  60 S10       30.08R
IONIA          FAIR      62  46  55 S7        30.09S
KALAMAZOO      CLOUDY    62  46  55 S12       30.11S
LUDINGTON      CLOUDY    68  53  58 S21G30    30.00S
MARSHALL       PTCLDY    60  46  59 S6        30.12S
MOUNT PLEASANT CLOUDY    62  45  54 S7        30.09R
MUSKEGON       CLOUDY    68  51  54 S17       30.04S
SOUTH HAVEN    PTCLDY    64  49  58 S8        30.07R
$$
MIZ016>042-220800-
NORTHERN LOWER MICHIGAN

CITY           SKY/WX    TMP DP  RH WIND       PRES   REMARKS
ALPENA         CLOUDY    61  53  75 S6        30.08R
BEAVER ISLAND  CLEAR     65  51  62 S7        29.98S
BELLAIRE       MOCLDY    65  49  55 S8        30.02S
CADILLAC       PTCLDY    63  46  53 S8        30.05F
CHARLEVOIX     PTCLDY    66  50  57 S9G16     30.02F
FRANKFORT      CLEAR     67  54  63 SE12      29.99S
GAYLORD        CLEAR     59  45  59 S8        30.06R
GRAYLING       PTCLDY    60  45  56 S7        30.08R
HARBOR SPRINGS MOCLDY    65  49  54 SW5       30.01S
HOUGHTON LAKE  PTCLDY    62  46  55 S9        30.09R
MANISTEE       CLOUDY    65  54  67 VRB7      30.00S
OSCODA         MOCLDY    60  52  76 SW8       30.10R
PELLSTON       CLEAR     66  51  58 S5        30.02
ROGERS CITY    PTCLDY    63  47  57 S8        30.06R
TRAVERSE CITY  CLOUDY    68  51  54 VRB5      29.99S
$$
MIZ007>008-015-220800-
EASTERN UPPER MICHIGAN

CITY           SKY/WX    TMP DP  RH WIND       PRES   REMARKS
KINROSS        CLOUDY    57  49  74 SE9       30.02
MACKINAC ISLAN CLOUDY    65  47  52 S8        30.01R
NEWBERRY       CLEAR     59  54  83 S7        29.97S
S. S. MARIE    CLOUDY    60  51  72 E3        30.02S
MUNISING         N/A     64  57  78 S14G24    29.86F
$$
MIZ004>006-011>014-085-220800-
CENTRAL UPPER MICHIGAN

CITY           SKY/WX    TMP DP  RH WIND       PRES   REMARKS
MANISTIQUE     PTCLDY    60  55  82 S8        29.95S
ESCANABA       MOCLDY    60  57  89 S8        29.90F
MENOMINEE      PTCLDY    65  57  75 S10       29.89F
SAWYER-GWINN   PTCLDY    62  56  82 S15       29.88S
$$
MIZ001>003-009>011-084-220800-
WESTERN UPPER MICHIGAN

CITY           SKY/WX    TMP DP  RH WIND       PRES   REMARKS
IRON MOUNTAIN  CLOUDY    63  55  75 S9        29.86
HOUGHTON       CLOUDY    64  54  69 SE7       29.77F
COPPER HARBOR    N/A     62  54  74 SW10G20   29.77S
IRONWOOD       CLOUDY    61  57  87 S15G21    29.74S
$$

ABBREVIATIONS USED IN REMARKS
   TC - TEMPERATURE IN CELSIUS
  WCI - WIND CHILL INDEX
   HX - HEAT INDEX
  VSB - VISIBILITY





USA.gov is the U.S. government's official web portal to all federal, state and local government web resources and services.